This is the latest recevied weather packets stored in our database for station/object HB9SZU-7. If no packets are shown the sender has not sent any weather packets the latest 10 day(s).
| Time | Temp. | Humidity | Pressure | Rain* | Wind** | Luminosity | Snow |
|---|---|---|---|---|---|---|---|
| 1777871630 | 11.67° C | 58% | 937 hPa | - | - | - | - |
| 1777870669 | 11.67° C | 57% | 936.9 hPa | - | - | - | - |
| 1777869710 | 11.67° C | 58% | 936.7 hPa | - | - | - | - |
| 1777868750 | 11.67° C | 58% | 936.7 hPa | - | - | - | - |
| 1777867789 | 11.67° C | 58% | 936.8 hPa | - | - | - | - |
| 1777866832 | 11.67° C | 57% | 936.9 hPa | - | - | - | - |
| 1777842830 | 13.89° C | 55% | 938.2 hPa | - | - | - | - |
| 1777839949 | 14.44° C | 54% | 938.3 hPa | - | - | - | - |
| 1777836110 | 15° C | 53% | 937.6 hPa | - | - | - | - |
| 1777835149 | 15.56° C | 53% | 937.7 hPa | - | - | - | - |
| 1777831310 | 16.67° C | 53% | 941.6 hPa | - | - | - | - |
| 1777826510 | 13.33° C | 56% | 941.6 hPa | - | - | - | - |
| 1777825549 | 13.33° C | 56% | 941.6 hPa | - | - | - | - |
| 1777822670 | 13.33° C | 56% | 941.6 hPa | - | - | - | - |
| 1777821710 | 13.33° C | 56% | 941.6 hPa | - | - | - | - |
| 1777817870 | 13.33° C | 56% | 941.6 hPa | - | - | - | - |
| 1777814990 | 13.33° C | 56% | 941.6 hPa | - | - | - | - |
| 1777811150 | 13.33° C | 56% | 941.6 hPa | - | - | - | - |
| 1777806350 | 13.33° C | 56% | 941.6 hPa | - | - | - | - |
| 1777804430 | 13.33° C | 56% | 941.6 hPa | - | - | - | - |
| 1777802509 | 13.33° C | 56% | 941.6 hPa | - | - | - | - |
| 1777801550 | 13.33° C | 56% | 941.6 hPa | - | - | - | - |
| 1777800590 | 13.33° C | 56% | 941.6 hPa | - | - | - | - |
| 1777799629 | 13.33° C | 56% | 941.6 hPa | - | - | - | - |
| 1777798670 | 13.33° C | 56% | 941.6 hPa | - | - | - | - |
* Rain since midnight (hover to see other rain measurements)
** Current wind speed in m/s (hover to see current wind gust speed)